Погода в Зубочистке Второй

Россия / Оренбургская область     51°40′02″N   54°11′37″E
темп.,
°C
ветер,
м/с
пор.,
м/с
влажн.,
%
обл.,
%
осадки,
мм/ч
давл.,
гПа
погр.,
м
22 января, сб
сб2223:00−13вюв2297100 0.4 102631
02:00−14вюв229899 0.1 102628
05:00−14вюв2297100 0.3 102741
08:00−13вюв2296100 0.1 102753
11:00−12вюв3591100 0.1 1028131
14:00−10юв378699 0.0 1028204
17:00−12в23925 0.0 102928
20:00−17в239621 0.0 103020
23 января, вс
вс2323:00−19всв2297100 0.0 103213
02:00−16в239196 0.0 103249
05:00−18всв2392100 0.0 103231
08:00−17всв349341 0.0 103358
11:00−15в4985100 0.0 1034159
14:00−12в4887100 0.0 1034213
17:00−12в4892100 0.0 1035158
20:00−13в41092100 0.0 1036176
24 января, пн
пн2423:00−13в4992100 0.0 1036169
02:00−13в4992100 0.0 1037164
05:00−14в3890100 0.0 1038157
08:00−15в4989100 0.0 1038148
11:00−15в4986100 0.0 1039183
14:00−12в478477 0.0 1039183
17:00−13в3787100 0.0 1039129
20:00−16всв239099 0.0 103944
25 января, вт
вт2523:00−17всв3887100 0.0 103886
02:00−18св2291100 0.0 103913
05:00−18в1189100 0.0 103810
08:00−19всв2190100 0.0 103712
11:00−17всв128952 0.0 103735
14:00−11в228262 0.0 103596
17:00−13в1191100 0.0 103510
20:00−17св2194100 0.0 103510
26 января, ср
ср2623:00−19всв119852 0.0 103410
02:00−20всв119848 0.0 103311
05:00−21всв2297100 0.0 103211
08:00−22всв229731 0.0 103212
11:00−19в2395100 0.0 103172
14:00−12вюв358198 0.0 1029154
17:00−13в22915 0.0 102917
20:00−15в2395100 0.0 102927